Location: Dumpton Point
(51.3500°N, 1.4433°E)
Time: 02:21:01
(UTC+00:00)

Tiros 1 - All Passes

Search period start: 21 April 2021 00:00
Search period end: 01 May 2021 00:00
Orbit: 630 x 663 km, 48.4° (Epoch: 20 April)

Date Brightness Start Highest point End Pass type
(mag) Time Alt. Az. Time Alt. Az. Time Alt. Az.
21 Apr - 08:32:27 10° SSW 08:35:57 21° SE 08:39:26 10° E daylight
21 Apr - 10:13:00 10° WSW 10:17:29 49° SSE 10:21:57 10° E daylight
21 Apr - 11:54:50 10° W 11:59:24 60° S 12:03:57 10° ESE daylight
21 Apr - 13:36:59 10° W 13:41:11 35° SSW 13:45:22 10° SE daylight
21 Apr - 15:20:56 10° WSW 15:22:23 11° SW 15:23:51 10° SSW daylight
22 Apr - 07:19:11 10° SSE 07:20:21 11° SE 07:21:33 10° ESE daylight
22 Apr - 08:57:22 10° SW 09:01:33 34° SSE 09:05:43 10° E daylight
22 Apr - 10:38:45 10° WSW 10:43:19 59° S 10:47:53 10° E daylight
22 Apr - 12:20:45 10° W 12:25:15 50° SSW 12:29:43 10° ESE daylight
22 Apr - 14:03:14 10° W 14:06:48 22° SSW 14:10:20 10° SSE daylight
23 Apr - 07:42:23 10° SSW 07:45:47 20° SE 07:49:10 10° E daylight
23 Apr - 09:22:49 10° WSW 09:27:17 48° SSE 09:31:45 10° E daylight
23 Apr - 11:04:37 10° W 11:09:12 60° S 11:13:45 10° ESE daylight
23 Apr - 12:46:46 10° W 12:51:00 36° SSW 12:55:13 10° SE daylight
23 Apr - 14:30:23 10° WSW 14:32:15 12° SW 14:34:06 10° SSW daylight
24 Apr - 06:30:00 10° SE 06:30:13 10° SE 06:30:25 10° SE daylight
24 Apr - 08:07:13 10° SW 08:11:22 32° SSE 08:15:30 10° E daylight
24 Apr - 09:48:32 10° WSW 09:53:07 59° S 09:57:41 10° E daylight
24 Apr - 11:30:32 10° W 11:35:03 52° SSW 11:39:32 10° ESE daylight
24 Apr - 13:12:58 10° W 13:16:38 23° SSW 13:20:16 10° SSE daylight
25 Apr - 06:52:19 10° S 06:55:37 19° SE 06:58:54 10° E daylight
25 Apr - 08:32:37 10° SW 08:37:06 46° SSE 08:41:33 10° E daylight
25 Apr - 10:14:24 10° W 10:18:59 61° S 10:23:34 10° ESE daylight
25 Apr - 11:56:32 10° W 12:00:49 38° SSW 12:05:05 10° SE daylight
25 Apr - 13:39:55 10° WSW 13:42:06 13° SW 13:44:15 10° SSW daylight
26 Apr - 07:17:04 10° SW 07:21:11 31° SSE 07:25:17 10° E daylight
26 Apr - 08:58:20 10° WSW 09:02:55 58° S 09:07:28 10° E daylight
26 Apr - 10:40:19 10° W 10:44:51 53° SSW 10:49:21 10° ESE daylight
26 Apr - 12:22:42 10° W 12:26:27 24° SSW 12:30:11 10° SSE daylight
27 Apr - 06:02:17 10° S 06:05:27 18° SE 06:08:36 10° E daylight
27 Apr - 07:42:26 10° SW 07:46:54 45° SSE 07:51:20 10° E daylight
27 Apr - 09:24:11 10° W 09:28:47 61° S 09:33:22 10° ESE daylight
27 Apr - 11:06:18 10° W 11:10:37 39° SSW 11:14:56 10° SE daylight
27 Apr - 12:49:30 10° WSW 12:51:57 14° SW 12:54:22 10° S daylight
28 Apr - 06:26:56 10° SSW 06:31:00 29° SSE 06:35:03 10° E daylight
28 Apr - 08:08:07 10° WSW 08:12:43 57° S 08:17:17 10° E daylight
28 Apr - 09:50:06 10° W 09:54:39 54° SSW 09:59:10 10° ESE daylight
28 Apr - 11:32:26 10° W 11:36:17 26° SSW 11:40:07 10° SSE daylight
29 Apr - 05:12:15 10° S 05:15:16 17° SE 05:18:18 10° ESE daylight
29 Apr - 06:52:14 10° SW 06:56:42 43° SSE 07:01:07 10° E daylight
29 Apr - 08:33:58 10° W 08:38:35 61° S 08:43:10 10° E daylight
29 Apr - 10:16:04 10° W 10:20:26 41° SSW 10:24:47 10° SE daylight
29 Apr - 11:59:07 10° WSW 12:01:47 15° SW 12:04:26 10° S daylight
30 Apr - 05:36:48 10° SSW 05:40:49 28° SSE 05:44:49 10° E daylight
30 Apr - 07:17:54 10° WSW 07:22:31 56° S 07:27:04 10° E daylight
30 Apr - 08:59:52 10° W 09:04:27 55° S 09:08:59 10° ESE daylight
30 Apr - 10:42:11 10° W 10:46:07 27° SSW 10:50:00 10° SSE daylight
